• In Belgium
  • List of Countries
  • For 7 days
  • Water Temperature
  • Satellite Maps
  • Weather Map
  • Weather Widgets
  • user-avatar
    Login

    Hourly Weather Ko Lanta

    Today, 22 November, Wednesday

    Time Temperature Precipitation Wind Pressure Humidity
    00:00 +27°C° 0.2 mm 1 mps 755 mmHg 93%
    01:00 +27°C° 0 mm 2 mps 755 mmHg 93%
    02:00 +27°C° 0.1 mm 2 mps 755 mmHg 93%
    03:00 +26°C° 0.1 mm 2 mps 755 mmHg 93%
    04:00 +26°C° 0.1 mm 2 mps 754 mmHg 93%
    05:00 +26°C° 0.3 mm 2 mps 755 mmHg 93%
    06:00 +27°C° 0.3 mm 2 mps 755 mmHg 93%
    07:00 +27°C° 0 mm 2 mps 755 mmHg 92%
    08:00 +29°C° 0.3 mm 2 mps 755 mmHg 84%
    09:00 +31°C° 0.3 mm 2 mps 755 mmHg 77%
    10:00 +32°C° 0.3 mm 2 mps 756 mmHg 69%
    11:00 +34°C° 0.2 mm 2 mps 755 mmHg 67%
    12:00 +34°C° 0.2 mm 2 mps 755 mmHg 66%
    13:00 +35°C° 0 mm 2 mps 755 mmHg 62%
    14:00 +34°C° 0.7 mm 2 mps 754 mmHg 69%
    15:00 +32°C° 0.7 mm 2 mps 754 mmHg 75%
    16:00 +31°C° 0.7 mm 1 mps 753 mmHg 81%
    17:00 +30°C° 0.4 mm 2 mps 753 mmHg 84%
    18:00 +29°C° 0.4 mm 2 mps 754 mmHg 87%
    19:00 +28°C° 0 mm 3 mps 754 mmHg 90%
    20:00 +27°C° 0 mm 3 mps 754 mmHg 91%
    21:00 +27°C° 0 mm 3 mps 755 mmHg 91%
    22:00 +27°C° 0 mm 3 mps 755 mmHg 92%
    23:00 +27°C° 0 mm 3 mps 755 mmHg 92%

    Tomorrow, 23 November, Thursday

    Time Temperature Precipitation Wind Pressure Humidity
    00:00 +27°C° 0 mm 3 mps 755 mmHg 92%
    01:00 +27°C° 0 mm 3 mps 755 mmHg 92%
    02:00 +27°C° 0 mm 3 mps 755 mmHg 92%
    03:00 +27°C° 0 mm 3 mps 755 mmHg 92%
    04:00 +27°C° 0 mm 3 mps 754 mmHg 91%
    05:00 +27°C° 0 mm 4 mps 755 mmHg 91%
    06:00 +27°C° 0 mm 4 mps 755 mmHg 90%
    07:00 +27°C° 0 mm 4 mps 755 mmHg 89%
    08:00 +28°C° 0 mm 5 mps 755 mmHg 82%
    09:00 +30°C° 0 mm 5 mps 755 mmHg 76%
    10:00 +33°C° 0 mm 5 mps 756 mmHg 69%
    11:00 +34°C° 0 mm 5 mps 755 mmHg 64%
    12:00 +35°C° 0 mm 4 mps 755 mmHg 60%
    13:00 +36°C° 0 mm 4 mps 754 mmHg 56%
    14:00 +35°C° 0.2 mm 4 mps 754 mmHg 57%
    15:00 +35°C° 0.2 mm 4 mps 754 mmHg 59%
    16:00 +35°C° 0.2 mm 4 mps 753 mmHg 60%
    17:00 +33°C° 0.3 mm 4 mps 754 mmHg 67%
    18:00 +32°C° 0.3 mm 4 mps 754 mmHg 73%
    19:00 +29°C° 0.3 mm 4 mps 754 mmHg 79%
    20:00 +29°C° 0.6 mm 4 mps 755 mmHg 82%
    21:00 +28°C° 0.6 mm 4 mps 755 mmHg 84%
    22:00 +28°C° 0.6 mm 4 mps 756 mmHg 86%
    23:00 +28°C° 0.7 mm 4 mps 756 mmHg 87%

    Day after tomorrow, 24 November, Friday

    Time Temperature Precipitation Wind Pressure Humidity
    00:00 +28°C° 0.7 mm 4 mps 756 mmHg 87%
    01:00 +28°C° 0.7 mm 4 mps 755 mmHg 87%
    02:00 +27°C° 0.5 mm 5 mps 755 mmHg 88%
    03:00 +27°C° 0.5 mm 5 mps 755 mmHg 89%
    04:00 +27°C° 0.5 mm 5 mps 755 mmHg 89%
    05:00 +27°C° 0.2 mm 4 mps 755 mmHg 89%
    06:00 +27°C° 0.2 mm 4 mps 755 mmHg 89%
    07:00 +27°C° 0.2 mm 4 mps 756 mmHg 88%
    08:00 +29°C° 0 mm 4 mps 756 mmHg 81%
    09:00 +30°C° 0 mm 4 mps 757 mmHg 73%
    10:00 +33°C° 0 mm 5 mps 757 mmHg 66%
    11:00 +34°C° 0.1 mm 4 mps 757 mmHg 64%
    12:00 +34°C° 0.1 mm 4 mps 756 mmHg 63%
    13:00 +35°C° 0.1 mm 4 mps 756 mmHg 61%
    14:00 +34°C° 0.6 mm 4 mps 755 mmHg 65%
    15:00 +33°C° 0.6 mm 4 mps 755 mmHg 69%
    16:00 +32°C° 0.6 mm 4 mps 754 mmHg 73%
    17:00 +30°C° 1.3 mm 4 mps 755 mmHg 78%
    18:00 +29°C° 1.3 mm 4 mps 755 mmHg 83%
    19:00 +28°C° 1.3 mm 5 mps 756 mmHg 88%
    20:00 +27°C° 1.1 mm 4 mps 756 mmHg 89%
    21:00 +27°C° 1.1 mm 4 mps 757 mmHg 90%
    22:00 +27°C° 1.1 mm 4 mps 758 mmHg 91%
    23:00 +27°C° 0.3 mm 4 mps 757 mmHg 91%

    25 November, Saturday

    Time Temperature Precipitation Wind Pressure Humidity
    00:00 +27°C° 0.3 mm 4 mps 757 mmHg 92%
    01:00 +26°C° 0.3 mm 3 mps 757 mmHg 93%
    02:00 +26°C° 0.3 mm 4 mps 756 mmHg 93%
    03:00 +26°C° 0.3 mm 4 mps 756 mmHg 93%
    04:00 +26°C° 0.3 mm 4 mps 755 mmHg 93%
    05:00 +26°C° 0.1 mm 4 mps 755 mmHg 92%
    06:00 +26°C° 0.1 mm 4 mps 756 mmHg 92%
    07:00 +26°C° 0.1 mm 4 mps 756 mmHg 91%
    08:00 +28°C° 0 mm 4 mps 757 mmHg 83%
    09:00 +30°C° 0 mm 4 mps 757 mmHg 76%
    10:00 +32°C° 0 mm 4 mps 758 mmHg 68%
    11:00 +33°C° 0 mm 4 mps 757 mmHg 65%
    12:00 +34°C° 0 mm 3 mps 756 mmHg 62%
    13:00 +35°C° 0 mm 3 mps 756 mmHg 60%
    14:00 +34°C° 0.8 mm 3 mps 755 mmHg 65%
    15:00 +33°C° 0.8 mm 3 mps 755 mmHg 71%
    16:00 +31°C° 0.8 mm 3 mps 754 mmHg 77%
    17:00 +30°C° 0.9 mm 3 mps 755 mmHg 81%
    18:00 +29°C° 0.9 mm 3 mps 755 mmHg 86%
    19:00 +28°C° 0.9 mm 3 mps 756 mmHg 90%
    20:00 +27°C° 0.7 mm 3 mps 757 mmHg 91%
    21:00 +27°C° 0.7 mm 3 mps 757 mmHg 92%
    22:00 +27°C° 0.7 mm 4 mps 758 mmHg 93%
    23:00 +27°C° 0.7 mm 4 mps 758 mmHg 93%

    26 November, Sunday

    Time Temperature Precipitation Wind Pressure Humidity
    00:00 +26°C° 0.7 mm 4 mps 757 mmHg 94%
    01:00 +26°C° 0.7 mm 3 mps 757 mmHg 94%
    02:00 +26°C° 0.3 mm 3 mps 757 mmHg 94%
    03:00 +26°C° 0.3 mm 3 mps 756 mmHg 94%
    04:00 +26°C° 0.3 mm 3 mps 756 mmHg 94%
    05:00 +26°C° 0.2 mm 3 mps 756 mmHg 94%
    06:00 +26°C° 0.2 mm 3 mps 757 mmHg 94%
    07:00 +26°C° 0.2 mm 3 mps 757 mmHg 93%
    08:00 +28°C° 0.2 mm 3 mps 757 mmHg 87%
    09:00 +29°C° 0.2 mm 3 mps 758 mmHg 81%
    10:00 +30°C° 0.2 mm 3 mps 758 mmHg 75%
    11:00 +31°C° 0.2 mm 3 mps 757 mmHg 73%
    12:00 +32°C° 0.2 mm 2 mps 757 mmHg 71%
    13:00 +34°C° 0.2 mm 2 mps 756 mmHg 69%
    14:00 +32°C° 1.2 mm 2 mps 755 mmHg 73%
    15:00 +31°C° 1.2 mm 1 mps 755 mmHg 78%
    16:00 +30°C° 1.2 mm 1 mps 754 mmHg 82%
    17:00 +29°C° 0.4 mm 1 mps 755 mmHg 85%
    18:00 +29°C° 0.4 mm 2 mps 755 mmHg 87%
    19:00 +28°C° 0.4 mm 2 mps 756 mmHg 89%
    20:00 +27°C° 0.5 mm 2 mps 756 mmHg 91%
    21:00 +27°C° 0.5 mm 2 mps 757 mmHg 92%
    22:00 +27°C° 0.5 mm 3 mps 757 mmHg 93%
    23:00 +27°C° 0.6 mm 3 mps 757 mmHg 94%

    27 November, Monday

    Time Temperature Precipitation Wind Pressure Humidity
    00:00 +26°C° 0.6 mm 3 mps 757 mmHg 94%
    01:00 +26°C° 0.6 mm 3 mps 756 mmHg 95%
    02:00 +26°C° 0.6 mm 3 mps 756 mmHg 95%
    03:00 +26°C° 0.6 mm 3 mps 756 mmHg 95%
    04:00 +26°C° 0.6 mm 4 mps 755 mmHg 96%
    05:00 +26°C° 0.7 mm 3 mps 756 mmHg 95%
    06:00 +26°C° 0.7 mm 3 mps 756 mmHg 94%
    07:00 +26°C° 0.7 mm 3 mps 756 mmHg 93%
    08:00 +28°C° 0.4 mm 3 mps 757 mmHg 84%
    09:00 +30°C° 0.4 mm 2 mps 757 mmHg 75%
    10:00 +32°C° 0.4 mm 2 mps 757 mmHg 66%
    11:00 +34°C° 0 mm 2 mps 757 mmHg 62%
    12:00 +35°C° 0 mm 2 mps 756 mmHg 58%
    13:00 +35°C° 0 mm 1 mps 755 mmHg 54%
    14:00 +34°C° 0.4 mm 1 mps 755 mmHg 61%
    15:00 +33°C° 0.4 mm 1 mps 754 mmHg 68%
    16:00 +32°C° 0.4 mm 1 mps 754 mmHg 74%
    17:00 +30°C° 0.3 mm 1 mps 754 mmHg 78%
    18:00 +29°C° 0.3 mm 1 mps 755 mmHg 83%
    19:00 +26°C° 0.3 mm 0 mps 755 mmHg 87%
    20:00 +28°C° 0.3 mm 1 mps 756 mmHg 88%
    21:00 +27°C° 0.3 mm 1 mps 756 mmHg 89%
    22:00 +27°C° 0.3 mm 1 mps 756 mmHg 90%
    23:00 +27°C° 0.4 mm 2 mps 756 mmHg 90%
    Show more